This demonstration page uses our WeatherBlox Daily Observations layout. Learn more.

Left ArrowRight Arrow

36.17497, -115.13722

Hourly Observations for January 2, 2020

Temp ( °F °C ) Dew Point ( °F °C ) Humidity (%) Winds ( mph kmh ) Pressure ( in mb ) Visibility ( mi km ) Precip ( " mm )
12:53 am 00:53 Mostly Cloudy 42 5.6 30 -1.1 62 62 Calm 29.96 1014 10 16.0934 0 0
1:53 am 01:53 Cloudy 42 5.6 30 -1.1 62 62 S 5 7 29.97 1015 10 16.0934 0 0
2:53 am 02:53 Mostly Cloudy 41 5 30 -1.1 65 65 Calm 29.98 1015 10 16.0934 0 0
3:53 am 03:53 Clear 44 6.7 31 -0.6 60 60 NNW 6 9 29.98 1015 10 16.0934 0 0
4:53 am 04:53 Clear 50 10 30 -1.1 46 46 N 10 17 29.99 1016 10 16.0934 0 0
5:53 am 05:53 Clear 49 9.4 28 -2.2 44 44 NNE 9 15 30.02 1017 10 16.0934 0 0
6:53 am 06:53 Sunny 50 10 27 -2.8 41 41 N 15 24 30.04 1017 10 16.0934 0 0
7:53 am 07:53 Sunny 49 9.4 28 -2.2 44 44 NW 16 26 30.06 1018 10 16.0934 0 0
8:53 am 08:53 Sunny 54 12.2 24 -4.4 31 31 NW 18 30 30.07 1018 10 16.0934 0 0
9:53 am 09:53 Sunny 56 13.3 24 -4.4 29 29 NNW 16 26 30.09 1019 10 16.0934 0 0
10:53 am 10:53 Sunny 58 14.4 23 -5 26 26 NNW 26 43 30.08 1019 10 16.0934 0 0
11:53 am 11:53 Sunny 59 15 21 -6.1 23 23 NNW 20 31 30.06 1018 10 16.0934 0.001 0.001
12:53 pm 12:53 Sunny with Light Rain 60 15.6 20 -6.7 21 21 NNW 17 28 30.04 1017 10 16.0934 0.001 0.001
1:53 pm 13:53 Sunny 61 16.1 19 -7.2 20 20 NNW 15 24 30.04 1017 10 16.0934 0.001 0.001
2:53 pm 14:53 Sunny 61 16.1 18 -7.8 19 19 NNW 14 22 30.06 1018 10 16.0934 0 0
3:53 pm 15:53 Sunny 60 15.6 20 -6.7 21 21 NNW 14 22 30.07 1018 10 16.0934 0 0
4:53 pm 16:53 Clear 58 14.4 20 -6.7 23 23 NNW 5 7 30.08 1019 10 16.0934 0 0
5:53 pm 17:53 Clear 58 14.4 20 -6.7 23 23 N 10 17 30.11 1020 10 16.0934 0 0
6:53 pm 18:53 Clear 55 12.8 22 -5.6 28 28 N 9 15 30.13 1020 10 16.0934 0 0
7:53 pm 19:53 Clear 55 12.8 21 -6.1 26 26 NNW 10 17 30.17 1022 10 16.0934 0 0
8:53 pm 20:53 Clear 53 11.7 22 -5.6 30 30 NNW 9 15 30.18 1022 10 16.0934 0 0
9:53 pm 21:53 Clear 53 11.7 23 -5 31 31 N 9 15 30.2 1023 10 16.0934 0 0
10:53 pm 22:53 Clear 52 11.1 24 -4.4 34 34 NNW 10 17 30.21 1023 10 16.0934 0 0
11:53 pm 23:53 Clear 52 11.1 24 -4.4 34 34 N 8 13 30.22 1023 10 16.0934 0 0

Powered by AerisWeather